Weather History for Claremore, OK

Change the Weather History Date:

Friday, June 6, 2014

  Actual Average (KTUL) Record (KTUL)
Temperature  
Mean Temperature 74 °F 75 °F  
Max Temperature 80 °F 85 °F 106 °F (1911)
Min Temperature 68 °F 65 °F 50 °F (1998)
Cooling Degree Days 9 10  
Month to date cooling degree days 57  
Year to date cooling degree days 291  
Since 1 June cooling degree days 57  
Growing Degree Days 24 (Base 50)    
Moisture  
Dew Point 67 °F    
Average Humidity 84    
Maximum Humidity 100    
Minimum Humidity 61    
Precipitation  
Precipitation 0.45 in 0.19 in 2.65 in (1974)
Month to date precipitation 1.11  
Year to date precipitation 17.61  
Sea Level Pressure  
Sea Level Pressure 29.91 in    
Wind  
Wind Speed 6 mph (SSE)    
Max Wind Speed 21 mph    
Max Gust Speed 20 mph    
Visibility 9 miles    
Events Rain , Thunderstorm    
T = Trace of Precipitation, MM = Missing Value Source: NWS Daily Summary

Daily Weather History Graph

Daily Weather History Graph

Search for Another Location

Airport:

Trip Planner

Search our weather history database for the weather conditions in past years. The results will help you decide how hot, cold, wet, or windy it might be!

Date:

Astronomy

Jun. 06, 2014 Rise Set
Actual Time 6:04 AM CDT 8:37 PM CDT
Civil Twilight 5:34 AM CDT 9:07 PM CDT
Nautical Twilight 4:57 AM CDT 9:44 PM CDT
Astronomical Twilight 4:15 AM CDT 10:26 PM CDT
Moon 2:07 PM CDT (6/6) 1:45 AM CDT (6/6)
Length of Visible Light 15h 32m
Length of Day
14h 32m
First Quarter, 58% of the Moon is Illuminated
Jun 6
First Quarter
Jun 12
Full
Jun 19
Last Quarter
Jun 27
New
Jul 5
First Quarter

Hourly Weather History & Observations

Time (CDT) Temp. Heat Index Dew Point Humidity Pressure Visibility Wind Dir Wind Speed Gust Speed Precip Events Conditions
12:15 AM 68.0 °F - 64.4 °F 88% 29.89 in 5.0 mi ESE 12.7 mph 18.4 mph 0.14 in Rain , Thunderstorm Thunderstorms and Rain
12:35 AM 68.0 °F - 66.2 °F 94% 29.89 in 10.0 mi South 11.5 mph 19.6 mph 0.26 in Thunderstorm Mostly Cloudy
12:55 AM 69.8 °F - 68.0 °F 94% 29.91 in 7.0 mi NNE 5.8 mph - 0.28 in   Scattered Clouds
1:15 AM 68.0 °F - 66.2 °F 94% 29.89 in 7.0 mi WNW 3.5 mph - N/A   Clear
1:35 AM 68.0 °F - 64.4 °F 88% 29.89 in 10.0 mi Calm Calm - N/A   Clear
1:55 AM 68.0 °F - 64.4 °F 88% 29.89 in 10.0 mi NNE 4.6 mph - N/A   Clear
2:15 AM 68.0 °F - 64.4 °F 88% 29.89 in 7.0 mi North 5.8 mph - N/A   Clear
2:35 AM 68.0 °F - 64.4 °F 88% 29.90 in 10.0 mi NE 3.5 mph - N/A   Scattered Clouds
2:55 AM 68.0 °F - 66.2 °F 94% 29.89 in 10.0 mi East 4.6 mph - N/A   Clear
3:15 AM 68.0 °F - 66.2 °F 94% 29.89 in 10.0 mi East 4.6 mph - N/A   Scattered Clouds
3:35 AM 68.0 °F - 64.4 °F 88% 29.88 in 10.0 mi East 5.8 mph - N/A   Clear
3:55 AM 68.0 °F - 64.4 °F 88% 29.88 in 10.0 mi ESE 8.1 mph - N/A   Clear
4:15 AM 68.0 °F - 66.2 °F 94% 29.90 in 10.0 mi Calm Calm - N/A   Scattered Clouds
4:35 AM 68.0 °F - 66.2 °F 94% 29.90 in 10.0 mi ESE 3.5 mph - N/A   Scattered Clouds
4:55 AM 68.0 °F - 66.2 °F 94% 29.91 in 10.0 mi SE 3.5 mph - N/A   Scattered Clouds
5:15 AM 68.0 °F - 66.2 °F 94% 29.91 in 10.0 mi ESE 5.8 mph - N/A   Clear
5:35 AM 69.8 °F - 66.2 °F 88% 29.90 in 7.0 mi ESE 6.9 mph - N/A   Clear
5:55 AM 68.0 °F - 66.2 °F 94% 29.91 in 5.0 mi SE 4.6 mph - N/A   Clear
6:15 AM 68.0 °F - 66.2 °F 94% 29.91 in 5.0 mi SSE 6.9 mph - N/A   Clear
6:35 AM 69.8 °F - 68.0 °F 94% 29.90 in 5.0 mi SSE 4.6 mph - N/A   Clear
6:55 AM 69.8 °F - 69.8 °F 100% 29.88 in 7.0 mi SSE 5.8 mph - N/A   Clear
7:15 AM 71.6 °F - 69.8 °F 94% 29.88 in 7.0 mi SSE 5.8 mph - N/A   Clear
7:35 AM 71.6 °F - 69.8 °F 94% 29.88 in 10.0 mi SSE 4.6 mph - N/A   Clear
7:55 AM 71.6 °F - 69.8 °F 94% 29.89 in 7.0 mi Calm Calm - N/A   Clear
8:15 AM 71.6 °F - 69.8 °F 94% 29.91 in 7.0 mi Calm Calm - N/A   Clear
8:35 AM 71.6 °F - 69.8 °F 94% 29.91 in 7.0 mi South 3.5 mph - N/A   Clear
8:55 AM 71.6 °F - 69.8 °F 94% 29.93 in 7.0 mi Calm Calm - N/A   Clear
9:15 AM 71.6 °F - 69.8 °F 94% 29.95 in 7.0 mi Calm Calm - N/A   Clear
9:35 AM 71.6 °F - 69.8 °F 94% 29.94 in 10.0 mi South 3.5 mph - N/A   Clear
9:55 AM 71.6 °F - 71.6 °F 100% 29.98 in 10.0 mi Calm Calm - N/A   Scattered Clouds
10:15 AM 73.4 °F - 71.6 °F 94% 29.98 in 7.0 mi WSW 4.6 mph - 0.01 in Rain , Thunderstorm Thunderstorms and Rain
10:35 AM 71.6 °F - 69.8 °F 94% 29.92 in 3.0 mi South 20.7 mph - 0.07 in Rain , Thunderstorm Thunderstorms and Rain
10:55 AM 71.6 °F - 69.8 °F 94% 29.96 in 10.0 mi West 8.1 mph - 0.13 in Rain , Thunderstorm Light Thunderstorms and Rain
11:15 AM 71.6 °F - 69.8 °F 94% 29.98 in 10.0 mi NW 4.6 mph - 0.03 in   Overcast
11:35 AM 71.6 °F - 69.8 °F 94% 29.98 in 10.0 mi Calm Calm - 0.04 in Rain , Thunderstorm Light Thunderstorms and Rain
11:55 AM 71.6 °F - 68.0 °F 88% 30.03 in 10.0 mi South 4.6 mph - 0.04 in   Light Drizzle
12:15 PM 71.6 °F - 68.0 °F 88% 30.01 in 10.0 mi SW 5.8 mph - N/A Thunderstorm Clear
12:35 PM 71.6 °F - 68.0 °F 88% 29.95 in 10.0 mi ESE 9.2 mph - N/A Rain Light Rain
12:55 PM 71.6 °F - 68.0 °F 88% 29.88 in 10.0 mi SE 13.8 mph 17.3 mph N/A   Clear
1:15 PM 73.4 °F - 69.8 °F 88% 29.87 in 10.0 mi South 10.4 mph - N/A   Clear
1:35 PM 77.0 °F - 68.0 °F 74% 29.91 in 10.0 mi WSW 8.1 mph - N/A   Clear
1:55 PM 77.0 °F - 68.0 °F 74% 29.90 in 10.0 mi West 9.2 mph - N/A   Clear
2:15 PM 77.0 °F - 68.0 °F 74% 29.90 in 10.0 mi WNW 9.2 mph - N/A   Clear
2:35 PM 78.8 °F - 68.0 °F 69% 29.91 in 10.0 mi NW 5.8 mph - N/A   Clear
2:55 PM 78.8 °F - 69.8 °F 74% 29.90 in 10.0 mi Calm Calm - N/A   Clear
3:15 PM 78.8 °F - 68.0 °F 69% 29.89 in 10.0 mi Calm Calm - N/A   Scattered Clouds
3:35 PM 80.6 °F 83.2 °F 68.0 °F 65% 29.87 in 10.0 mi SSE 5.8 mph - N/A   Scattered Clouds
3:55 PM 80.6 °F 82.7 °F 66.2 °F 61% 29.89 in 10.0 mi SSW 5.8 mph - N/A   Clear
4:15 PM 80.6 °F 82.7 °F 66.2 °F 61% 29.88 in 10.0 mi SSE 5.8 mph - N/A   Clear
4:35 PM 80.6 °F 83.2 °F 68.0 °F 65% 29.89 in 10.0 mi South 6.9 mph - N/A   Clear
4:55 PM 78.8 °F - 64.4 °F 61% 29.93 in 10.0 mi SW 4.6 mph - N/A   Clear
5:15 PM 78.8 °F - 66.2 °F 65% 29.93 in 10.0 mi WSW 3.5 mph - N/A   Clear
5:35 PM 78.8 °F - 66.2 °F 65% 29.93 in 10.0 mi Calm Calm - N/A   Clear
5:55 PM 80.6 °F 82.7 °F 66.2 °F 61% 29.91 in 10.0 mi Calm Calm - N/A   Clear
6:15 PM 80.6 °F 82.7 °F 66.2 °F 61% 29.91 in 10.0 mi Calm Calm - N/A   Clear
6:35 PM 80.6 °F 82.7 °F 66.2 °F 61% 29.91 in 7.0 mi ESE 6.9 mph - N/A   Clear
6:55 PM 80.6 °F 83.2 °F 68.0 °F 65% 29.90 in 10.0 mi SE 8.1 mph - N/A   Clear
7:15 PM 78.8 °F - 66.2 °F 65% 29.91 in 10.0 mi ESE 5.8 mph - N/A   Clear
7:35 PM 78.8 °F - 68.0 °F 69% 29.91 in 10.0 mi SE 5.8 mph - N/A   Clear
7:55 PM 77.0 °F - 68.0 °F 74% 29.91 in 10.0 mi SE 4.6 mph - N/A   Clear
8:15 PM 73.4 °F - 66.2 °F 78% 29.91 in 10.0 mi SE 3.5 mph - N/A   Clear
8:35 PM 71.6 °F - 66.2 °F 83% 29.90 in 10.0 mi SE 3.5 mph - N/A   Clear
8:55 PM 71.6 °F - 66.2 °F 83% 29.88 in 10.0 mi SE 5.8 mph - N/A   Clear
9:15 PM 69.8 °F - 66.2 °F 88% 29.88 in 10.0 mi SE 3.5 mph - N/A   Clear
9:35 PM 69.8 °F - 66.2 °F 88% 29.88 in 10.0 mi Calm Calm - N/A   Clear
9:55 PM 69.8 °F - 66.2 °F 88% 29.88 in 10.0 mi SE 4.6 mph - N/A   Clear
10:15 PM 69.8 °F - 66.2 °F 88% 29.88 in 10.0 mi SE 5.8 mph - N/A   Clear
10:35 PM 69.8 °F - 68.0 °F 94% 29.89 in 10.0 mi SE 6.9 mph - N/A   Clear
10:55 PM 71.6 °F - 68.0 °F 88% 29.89 in 10.0 mi SE 9.2 mph - N/A   Clear
11:15 PM 71.6 °F - 68.0 °F 88% 29.89 in 10.0 mi South 10.4 mph - N/A   Clear
11:55 PM 71.6 °F - 68.0 °F 88% 29.93 in 10.0 mi SSE 4.6 mph - N/A   Scattered Clouds